EHI
0 0 0 0 0 0 0 0 0 0 0 0 0 0 0 0 0 0 0 0 0 0 0 0 0 0 0 0 0 0 0 0 0 0 0 0 0 0 0 0 0 0 0
0 0 0 0 0 0 0 0 0 0 0 0 0 0 0 0 0 0 0 0 0 0 0 0 0 0 0 0 0 0 0 0 0 0 0 0 0 0 0 0 0 0 0
0 0 0 0 0 0 0 0 0 0 0 0 0 0 0 0 0 0 0 0 0 0 0 0 0 0 0 0 0 0 0 0 0 0 0 0 0 0 0 0 0 0 0
0 0 0 0 0 0 0 0 0 0 0 0 0 0 0 0 0 0 0 0 0 0 0 0 0 0 0 0 0 0 0 0 0 0 0 0 0 0 0 0 0 0 0
0 0 0 0 0 0 0 0 0 0 0 0 0 0 0 0 0 0 0 0 0 0 0 0 0 0 0 0 0 0 0 0 0 0 0 0 0 0 0 0 0 0 0
0 0 0 0 0 0 0 0 0 0 0 0 0 0 0 0 0 0 0 0 0 0 0 0 0 0 0 0 0 0 0 0 0 0 0 0 0 0 0 0 0 0 0
0 0 0 0 0 0 0 0 0 0 0 0 0 0 0 0 0 0 0 0 0 0 0 0 0 0 0 0 0 0 0 0 0 0 0 0 0 0 0 0 0 0 0
0 0 0 0 0 0 0 0 0 0 0 0 0 0 0 0 0 0 0 0 0 0 0 0 0 0 0 0 0 0 0 0 0 0 0 0 0 0 0 0 0 0 0
0 0 0 0 0 0 0 0 0 0 0 0 0 0 0 0 0 0 0 0 0 0 0 0 0 0 0 0 0 0 0 0 0 0 0 0 0 0 0 0 0 0 0
0 0 0 0 0 0 0 0 0 0 0 0 0 0 0 0 0 0 0 0 0 0 0 0 0 0 0 0 0 0 0 0 0 0 0 0 0 0 0 0 0 0 0
0 0 0 0 0 0 0 0 0 0 0 0 0 0 0 0 0 0 0 0 0 0 0 0 0 0 0 0 0 0 0 0 0 0 0 0 0 0 0 0 0 0 0
0 0 0 0 0 0 0 0 0 0 0 0 0 0 0 0 0 0 0 0 0 0 0 0 0 0 0 0 0 0 0 0 0 0 0 0 0 0 0 0 0 0 0
0 0 0 0 0 0 0 0 0 0 0 0 0 0 0 0 0 0 0 0 0 0 0 0 0 0 0 0 0 0 0 0 0 0 0 0 0 0 0 0 0 0 0
0 0 0 0 0 0 0 0 0 0 0 0 0 0 0 0 0 0 0 0 0 0 0 0 0 0 0 0 0 0 0 0 0 0 0 0 0 0 0 0 0 0 0
0 0 0 0 0 0 0 0 0 0 0 0 0 0 0 0 0 0 0 0 0 0 0 0 0 0 0 0 0 0 0 0 0 0 0 0 0 0 0 0 0 0 0
0 0 0 0 0 0 0 0 0 0 0 0 0 0 0 0 0 0 0 0 0 0 0 0 0 0 0 0 0 0 0 0 0 0 0 0 0 0 0 0 0 0 0
0 0 0 0 0 0 0 0 0 0 0 0 0 0 0 0 0 0 0 0 0 0 0 0 0 0 0 0 0 0 0 0 0 0 0 0 0 0 0 0 0 0 0
0 0 0 0 0 0 0 0 0 0 0 0 0 0 0 0 0 0 0 0 0 0 0 0 0 0 0 0 0 0 0 0 0 0 0 0 0 0 0 0 0 0 0
0 0 0 0 0 0 0 0 0 0 0 0 0 0 0 0 0 0 0 0 0 0 0 0 0 0 0 0 0 0 0 0 0 0 0 0 0 0 0 0 0 0 0
0 0 0 0 0 0 0 0 0 0 0 0 0 0 0 0 0 0 0 0 0 0 0 0 0 0 0 0 0 0 0 0 0 0 0 0 0 0 0 0 0 0 0
0 0 0 0 0 0 0 0 0 0 0 0 0 0 0 0 0 0 0 0 0 0 0 0 0 0 0 0 0 0 0 0 0 0 0 0 0 0 0 0 0 0 0
0 0 0 0 0 0 0 0 0 0 0 0 0 0 0 0 0 0 0 0 0 0 0 0 0 0 0 0 0 0 0 0 0 0 0 0 0 0 0 0 0 0 0
0 0 0 0 0 0 0 0 0 0 0 0 0 0 0 0 0 0 0 0 0 0 0 0 0 0 0 0 0 0 0 0 0 0 0 0 0 0 0 0 0 0 0
0 0 0 0 0 0 0 0 0 0 0 0 0 0 0 0 0 0 0 0 0 0 0 0 0 0 0 0 0 0 0 0 0 0 0 0 0 0 0 0 0 0 0
0 0 0 0 0 0 0 0 0 0 0 0 0 0 0 0 0 0 0 0 0 0 0 0 0 0 0 0 0 0 0 0 0 0 0 0 0 0 0 0 0 0 0
0 0 0 0 0 0 0 0 0 0 0 0 0 0 0 0 0 0 0 0 0 0 0 0 0 0 0 0 0 0 0 0 0 0 0 0 0 0 0 0 0 0 0
Wind_Speed
12 14 15 15 16 17 17 18 17 17 17 18 18 19 20 20 20 19 18 17 17 16 15 15 16 15 12 12 12 12 13 13 17 18 16 17 20 20 18 18 18 19 18
9 11 13 14 14 16 17 17 17 17 17 18 18 19 20 20 20 20 20 19 18 18 17 16 17 13 16 14 12 14 14 15 16 20 18 17 20 20 20 20 18 17 18
8 10 12 13 14 16 16 16 16 17 17 18 19 20 19 19 20 20 19 18 18 18 17 16 16 15 17 14 15 14 13 13 15 17 19 17 16 16 19 19 20 17 18
7 10 12 13 13 14 14 14 15 16 17 17 18 19 18 17 18 18 17 17 17 16 16 16 16 16 17 16 14 15 14 15 16 16 17 16 16 17 16 15 15 15 15
8 10 12 11 11 12 13 13 14 15 16 16 17 18 18 16 16 17 17 17 16 16 16 16 17 19 21 18 14 14 14 14 14 14 15 16 16 14 14 14 16 16 17
10 11 10 10 11 12 13 13 14 15 15 16 17 18 19 15 23 29 21 17 16 16 16 16 16 19 22 26 27 26 22 17 16 15 15 17 18 18 16 15 16 17 18
10 10 10 10 11 12 12 13 14 14 15 16 17 18 20 21 28 30 31 18 17 16 16 14 13 13 18 14 19 24 23 26 26 19 19 19 20 18 19 20 18 19 19
11 11 10 9 11 11 12 13 13 13 14 14 16 18 19 20 28 30 30 22 17 16 16 16 15 14 13 14 13 15 16 16 18 14 15 17 17 18 17 18 19 19 19
12 11 10 8 10 11 12 13 12 12 13 13 14 17 18 19 26 29 28 15 15 17 16 15 15 15 18 20 15 16 17 14 17 22 23 23 27 28 23 15 15 15 17
12 13 12 11 11 12 12 12 11 11 12 12 14 15 17 17 22 27 29 13 14 13 13 13 19 19 19 19 15 14 16 13 12 13 16 17 17 18 22 15 13 13 15
13 13 13 12 12 12 12 11 10 10 11 12 13 13 15 17 20 25 28 14 13 12 10 10 10 17 19 19 18 13 15 15 13 13 12 12 12 11 11 11 11 12 14
14 14 14 13 11 9 11 10 9 10 11 11 12 12 11 13 17 20 27 25 19 12 10 9 9 15 16 18 14 14 18 16 10 10 11 11 11 11 10 11 13 13 14
15 15 14 13 11 10 10 10 9 8 9 9 9 10 10 9 12 22 24 26 26 15 10 13 13 15 14 12 14 15 14 9 9 10 11 11 11 11 12 11 12 13 14
15 14 13 12 11 10 8 8 8 8 9 9 9 9 9 9 9 10 12 14 20 17 12 12 15 15 11 11 11 9 7 7 8 9 10 11 11 11 11 10 11 10 11
14 13 12 11 11 10 9 8 9 10 10 10 9 9 9 9 11 16 12 10 10 10 9 6 6 6 7 7 6 7 6 7 8 8 9 10 10 11 11 10 10 10 11
12 12 10 9 9 9 9 9 12 15 17 19 18 14 11 14 14 17 20 18 17 15 11 7 7 7 7 7 6 6 6 7 7 8 9 9 10 11 11 10 10 10 10
13 12 10 9 9 9 9 9 10 9 13 17 19 20 19 16 17 17 18 19 18 17 11 8 7 7 6 6 6 6 7 7 7 8 9 9 10 10 11 11 10 10 10
13 12 11 9 9 9 9 9 8 9 8 7 10 17 19 19 18 17 17 15 12 12 8 8 7 6 6 6 6 6 6 6 7 7 8 9 9 10 10 11 10 11 11
12 9 9 9 9 9 9 8 8 9 8 7 6 8 13 16 17 18 16 10 9 9 8 7 6 6 5 5 5 5 6 7 7 8 8 9 9 10 10 11 11 15 13
10 14 14 10 9 9 8 8 8 8 7 7 7 6 6 8 8 10 10 8 8 7 7 6 6 6 5 5 5 5 6 7 7 7 8 8 8 9 11 12 11 11 10
10 11 15 11 9 9 8 8 8 7 7 7 6 7 9 7 7 9 8 8 8 7 7 6 5 5 5 5 5 5 7 7 7 7 8 8 9 9 10 10 11 11 11
9 9 9 9 9 8 8 7 7 7 7 8 6 6 12 8 6 6 7 7 7 6 5 5 5 5 4 4 4 5 6 7 7 8 8 9 9 10 10 10 10 11 11
10 11 10 9 9 11 10 8 7 7 7 7 6 5 6 6 6 6 6 6 6 5 5 5 5 4 4 4 4 5 6 7 7 9 9 9 9 10 10 11 13 13 12
10 11 11 10 9 8 8 7 7 6 6 6 6 6 6 5 5 6 5 5 5 5 5 5 5 5 6 4 4 5 6 7 9 8 9 9 10 10 10 11 12 13 12
10 10 10 9 8 8 7 7 6 6 6 6 6 5 5 5 5 5 5 5 6 5 6 5 4 4 5 6 6 6 9 13 12 8 7 8 10 11 11 12 11 13 12
10 10 9 8 8 7 7 6 5 5 5 5 5 5 6 5 5 5 6 5 5 5 5 5 5 4 4 5 6 9 11 12 11 10 7 7 9 10 12 10 13 12 12
Wind_Direction
234 230 230 231 231 231 232 234 232 230 225 223 219 216 213 209 205 205 207 207 212 217 219 224 232 235 240 244 246 249 251 253 264 274 279 283 285 283 281 277 275 275 273
245 239 237 236 233 233 235 235 234 232 228 224 221 218 216 212 207 205 207 207 210 216 220 224 232 233 239 244 247 250 252 253 261 273 279 282 283 283 282 281 278 275 273
252 245 243 240 237 237 237 236 233 231 229 224 221 220 216 212 209 207 207 208 211 216 220 224 230 233 240 243 247 251 253 256 259 266 275 279 281 281 283 281 279 276 275
259 250 248 246 244 244 243 239 236 232 230 227 224 223 219 214 211 208 206 208 212 217 222 226 230 232 239 244 249 253 256 259 262 265 272 278 281 283 282 283 284 282 279
268 259 258 258 255 253 249 244 239 235 232 229 227 225 221 215 211 207 204 206 210 216 223 228 232 235 238 242 244 250 253 257 263 269 275 281 284 288 288 289 289 288 283
279 271 270 265 259 254 251 246 241 236 233 230 228 226 224 218 217 212 205 207 211 216 223 228 234 240 245 249 253 257 259 264 271 275 279 282 286 290 293 291 290 288 287
287 280 275 268 264 258 253 248 243 239 235 231 229 227 229 226 221 218 211 206 212 216 221 227 232 236 242 244 256 264 269 271 271 272 277 281 288 292 292 290 286 284 283
293 288 281 272 269 268 261 254 249 243 237 232 230 229 230 229 224 222 217 212 216 220 223 227 235 240 240 244 250 258 260 263 264 266 268 275 279 283 283 286 289 287 283
297 296 292 276 271 270 265 260 253 246 242 237 234 231 231 231 225 222 218 214 219 224 226 230 235 244 249 251 254 261 267 267 269 272 272 277 282 288 291 291 289 287 287
306 304 301 293 282 276 272 268 259 249 245 240 236 232 232 232 226 222 219 215 219 222 226 229 235 241 248 253 255 262 270 277 280 282 281 283 284 284 286 281 282 282 284
308 304 300 295 289 285 281 272 263 252 247 242 240 235 233 232 229 223 220 212 215 219 223 225 229 238 247 254 259 263 272 283 287 286 286 284 283 281 279 276 270 271 275
307 302 300 299 296 287 281 275 264 254 248 245 242 240 233 230 227 225 223 218 213 218 223 226 231 238 247 256 264 270 280 288 286 286 287 288 291 292 292 288 280 272 266
304 302 302 301 297 289 281 275 266 252 246 244 240 239 235 226 225 223 224 223 221 217 223 229 235 243 252 261 267 275 282 282 281 282 286 291 294 294 293 289 284 276 271
301 302 302 301 298 294 280 268 260 251 245 242 240 238 235 228 219 215 216 222 224 225 226 231 237 246 251 261 267 270 268 269 276 280 286 291 295 296 295 296 295 295 290
301 301 300 297 296 294 283 268 261 252 246 244 244 240 237 232 223 212 206 207 206 208 205 212 220 230 239 245 251 258 263 268 273 278 286 293 298 300 300 300 296 294 291
300 299 299 299 297 291 289 283 259 254 259 252 247 244 244 243 239 224 215 212 208 203 200 208 219 228 238 247 255 262 266 271 276 283 288 293 298 301 302 301 298 295 294
296 296 296 294 293 293 290 288 290 275 255 253 250 245 241 240 238 230 215 208 206 202 206 213 221 229 236 243 252 261 271 277 283 283 286 292 297 300 301 302 302 299 297
295 293 291 290 291 290 287 284 282 284 282 270 252 246 242 237 232 224 210 199 202 203 209 216 222 227 232 240 249 260 271 279 280 283 288 292 297 300 302 303 303 302 301
295 291 290 289 287 285 283 280 275 270 268 269 264 252 242 233 224 214 201 197 195 199 204 214 219 223 229 237 248 259 269 276 282 287 290 294 298 301 303 303 302 302 302
290 287 290 288 286 284 279 274 270 265 262 258 254 248 231 215 207 199 197 194 195 198 202 209 213 219 225 233 246 258 268 276 283 285 291 297 300 302 303 304 303 303 301
290 288 289 287 281 280 277 273 267 262 258 253 249 240 226 219 208 195 190 192 195 196 198 204 208 212 220 229 243 257 268 278 285 291 294 298 303 304 304 303 303 302 301
288 285 284 283 282 280 278 269 261 256 252 249 246 237 232 225 212 196 188 188 191 191 191 195 205 211 217 228 244 260 272 281 289 295 298 301 304 306 306 305 306 307 305
286 286 287 285 283 284 282 268 257 251 245 239 232 224 222 216 206 193 183 177 176 179 181 189 201 208 214 227 243 257 270 281 290 296 302 306 308 309 309 310 310 310 309
288 288 289 288 285 282 279 271 259 248 237 230 222 217 211 205 196 183 176 169 170 174 178 187 202 210 218 239 254 262 271 283 291 295 301 302 306 309 311 311 311 312 311
294 293 292 291 290 286 279 269 258 242 227 220 214 208 200 193 185 175 169 166 169 175 181 187 196 208 221 244 265 277 287 294 299 309 308 304 307 310 314 314 315 316 315
295 293 290 289 286 282 275 266 252 234 220 210 204 198 191 185 180 171 165 164 167 171 177 187 196 206 228 254 270 284 294 302 308 318 320 312 315 317 322 319 321 321 320